FW7828 Weather Reports


time (UTC)temp
F
wind
direction
speed
knots
gust
knots
rain 1hr
in
rain 24hr
in
rain mn
in
humidity
%
barometer
mb
20260503210219 64 22 0.9 0.9 0.00 0.00 0.00 39 1014.9
20260503205714 64 173 2.6 2.6 0.00 0.00 0.00 40 1015.0
20260503205210 64 25 0.9 0.9 0.00 0.00 0.00 41 1014.9
20260503204707 65 160 0.9 1.7 0.00 0.00 0.00 42 1015.1
20260503204204 64 340 0.9 0.9 0.00 0.00 0.00 42 1014.9
20260503203701 65 185 2.6 4.3 0.00 0.00 0.00 42 1015.0
20260503203159 65 206 1.7 1.7 0.00 0.00 0.00 39 1015.0
20260503202656 65 57 1.7 1.7 0.00 0.00 0.00 38 1015.0
20260503202154 66 66 0.9 1.7 0.00 0.00 0.00 37 1015.0
20260503201652 65 154 2.6 4.3 0.00 0.00 0.00 39 1015.1
20260503201149 65 158 1.7 1.7 0.00 0.00 0.00 40 1015.2
20260503200645 66 163 2.6 2.6 0.00 0.00 0.00 42 1015.3
20260503200141 65 325 0.0 0.9 0.00 0.00 0.00 44 1015.4
20260503195639 66 134 1.7 2.6 0.00 0.00 0.00 39 1015.5
20260503195135 65 106 1.7 1.7 0.00 0.00 0.00 41 1015.5
20260503194633 65 296 0.0 0.9 0.00 0.00 0.00 40 1015.4
20260503194128 65 298 2.6 2.6 0.00 0.00 0.00 42 1015.7
20260503193625 65 57 1.7 2.6 0.00 0.00 0.00 44 1015.6
20260503193120 66 151 2.6 4.3 0.00 0.00 0.00 43 1015.6
20260503192616 63 129 3.5 4.3 0.00 0.00 0.00 42 1015.8
20260503192112 64 140 2.6 4.3 0.00 0.00 0.00 43 1015.9
20260503191609 64 91 0.9 1.7 0.00 0.00 0.00 43 1015.8
20260503191106 66 233 1.7 1.7 0.00 0.00 0.00 44 1016.0
20260503190603 65 219 0.9 0.9 0.00 0.00 0.00 46 1016.0
20260503190100 63 302 0.9 0.9 0.00 0.00 0.00 45 1016.1
20260503185556 64 98 1.7 1.7 0.00 0.00 0.00 44 1016.1
20260503185056 62 120 0.9 0.9 0.00 0.00 0.00 43 1016.1
20260503184552 63 148 2.6 4.3 0.00 0.00 0.00 45 1016.3
20260503184049 64 22 0.9 0.9 0.00 0.00 0.00 46 1016.2
20260503183545 63 130 2.6 4.3 0.00 0.00 0.00 44 1016.2
20260503183043 64 349 1.7 2.6 0.00 0.00 0.00 43 1016.4
20260503182541 64 152 4.3 5.2 0.00 0.00 0.00 43 1016.4
20260503182039 63 7 0.9 0.9 0.00 0.00 0.00 48 1016.4
20260503181535 62 174 1.7 1.7 0.00 0.00 0.00 46 1016.6
20260503181032 64 48 1.7 1.7 0.00 0.00 0.00 44 1016.6
20260503180529 64 145 5.2 7.0 0.00 0.00 0.00 42 1016.7
20260503180026 62 132 1.7 4.3 0.00 0.00 0.00 45 1016.4
20260503175524 62 137 2.6 2.6 0.00 0.00 0.00 46 1016.6
20260503175020 61 196 1.7 2.6 0.00 0.00 0.00 46 1016.6
20260503174518 64 130 2.6 4.3 0.00 0.00 0.00 42 1016.7
20260503174014 62 131 0.0 0.0 0.00 0.00 0.00 46 1016.5
20260503173509 62 359 0.0 0.9 0.00 0.00 0.00 48 1016.6
20260503173006 60 148 0.9 2.6 0.00 0.00 0.00 49 1016.7
20260503172504 62 182 1.7 1.7 0.00 0.00 0.00 43 1016.6
20260503172001 62 252 0.9 1.7 0.00 0.00 0.00 48 1016.6
20260503171457 63 140 0.9 1.7 0.00 0.00 0.00 43 1016.7
20260503170954 62 131 2.6 2.6 0.00 0.00 0.00 46 1016.7
20260503170450 60 297 0.9 0.9 0.00 0.00 0.00 52 1016.6
20260503150843 59 91 2.6 4.3 0.00 0.00 0.00 48 1017.1
20260503150339 59 163 0.9 1.7 0.00 0.00 0.00 51 1017.0
20260503140303 57 340 1.7 1.7 0.00 0.00 0.00 57 1017.2
20260503131233 53 12 2.6 2.6 0.00 0.00 0.00 67 1016.8
20260503130730 53 32 0.9 0.9 0.00 0.00 0.00 70 1017.0
20260503130227 53 35 0.0 0.9 0.00 0.00 0.00 70 1016.7
20260503120153 49 15 0.9 0.9 0.00 0.00 0.00 83 1016.0
20260503110621 46 0 0.0 0.0 0.00 0.00 0.00 96 1015.0
20260503110118 46 350 0.0 0.0 0.00 0.00 0.00 96 1015.1
20260503090508 46 356 0.0 0.0 0.00 0.00 0.00 96 1013.2
20260503081434 46 336 0.0 0.0 0.00 0.00 0.00 96 1012.9
20260503080931 45 333 0.0 0.0 0.00 0.00 0.00 96 1012.8
20260503080428 45 333 0.0 0.0 0.00 0.00 0.00 96 1012.7
20260503072904 46 342 0.0 0.0 0.00 0.00 0.00 96 1012.1
20260503072401 46 342 0.0 0.0 0.00 0.00 0.00 96 1012.1
20260503071858 46 342 0.0 0.0 0.00 0.00 0.00 95 1012.3
20260503071355 46 342 0.0 0.0 0.00 0.00 0.00 95 1012.1
20260503070851 46 342 0.0 0.0 0.00 0.00 0.00 95 1012.1
20260503070349 46 343 0.0 0.0 0.00 0.00 0.00 95 1012.0
20260503060315 47 351 0.0 0.0 0.00 0.00 0.00 95 1011.5
20260503054802 48 333 0.0 0.0 0.00 0.00 0.00 95 1011.8
20260503054258 48 333 0.0 0.0 0.00 0.00 0.00 95 1011.9
20260503053756 48 333 0.0 0.0 0.00 0.00 0.00 95 1011.6
20260503053255 49 333 0.0 0.0 0.00 0.00 0.00 95 1011.7
20260503052750 49 333 0.0 0.0 0.00 0.00 0.00 95 1011.6
20260503052248 49 333 0.0 0.0 0.00 0.00 0.00 95 1011.5
20260503051742 49 333 0.0 0.0 0.00 0.00 0.00 95 1011.7
20260503051240 49 333 0.0 0.0 0.00 0.00 0.00 95 1011.6
20260503050736 50 333 0.0 0.0 0.00 0.00 0.00 95 1011.7
20260503050233 50 334 0.0 0.0 0.00 0.00 0.00 95 1011.6
20260503045731 50 333 0.0 0.0 0.00 0.00 0.00 95 1011.7
20260503045229 50 339 0.0 0.0 0.00 0.00 0.00 95 1011.7
20260503044724 50 339 0.0 0.0 0.00 0.00 0.00 95 1011.7
20260503044222 50 336 0.0 0.0 0.00 0.00 0.00 95 1011.7
20260503043718 50 328 0.0 0.0 0.00 0.00 0.00 95 1011.9
20260503043216 50 328 0.0 0.0 0.00 0.00 0.00 95 1011.7
20260503042712 50 328 0.0 0.0 0.00 0.00 0.00 95 1011.5
20260503042209 50 328 0.0 0.0 0.00 0.00 0.00 95 1011.7
20260503041704 51 328 0.0 0.0 0.00 0.00 0.00 95 1011.6
20260503041202 51 328 0.0 0.0 0.00 0.00 0.00 95 1011.6
20260503040659 51 328 0.0 0.0 0.00 0.00 0.00 95 1011.5
20260503040157 51 327 0.0 0.0 0.00 0.00 0.00 95 1011.6
20260503035654 51 327 0.0 0.0 0.00 0.17 0.17 95 1011.4
20260503035151 51 323 0.0 0.0 0.00 0.17 0.17 95 1011.5
20260503034648 51 321 0.0 0.0 0.00 0.17 0.17 95 1011.6
20260503034145 51 321 0.0 0.0 0.00 0.17 0.17 95 1011.8
20260503033643 51 334 0.0 0.0 0.00 0.17 0.17 95 1011.7
20260503033140 51 346 0.0 0.0 0.00 0.17 0.17 95 1011.5
20260503032638 51 347 0.0 0.0 0.00 0.17 0.17 95 1011.7
20260503032137 51 347 0.0 0.0 0.00 0.17 0.17 95 1011.7
20260503031634 51 347 0.0 0.0 0.00 0.17 0.17 95 1011.5
20260503031131 51 347 0.0 0.0 0.00 0.17 0.17 95 1011.5
20260503030627 51 347 0.0 0.0 0.00 0.17 0.17 95 1011.3
20260503030124 51 344 0.0 0.0 0.00 0.17 0.17 95 1011.5
20260503025620 51 344 0.0 0.0 0.00 0.17 0.17 95 1011.6
20260503025119 51 344 0.0 0.0 0.00 0.17 0.17 95 1011.5
20260503024615 51 344 0.0 0.0 0.00 0.17 0.17 95 1011.7
20260503024112 51 344 0.0 0.0 0.00 0.17 0.17 94 1011.5
20260503023609 51 346 0.0 0.0 0.00 0.17 0.17 94 1011.5
20260503023106 51 341 0.0 0.0 0.00 0.17 0.17 94 1011.6
20260503022601 51 345 0.0 0.0 0.00 0.17 0.17 94 1011.3
20260503022056 51 345 0.0 0.0 0.00 0.17 0.17 94 1011.2
20260503021554 52 345 0.0 0.0 0.00 0.17 0.17 94 1011.3
20260503021050 52 11 0.0 0.0 0.00 0.17 0.17 94 1011.3
20260503020548 52 332 0.0 0.0 0.00 0.17 0.17 94 1011.6
20260503020044 52 338 0.0 0.0 0.00 0.17 0.17 94 1011.5
20260503015541 52 338 0.0 0.0 0.00 0.17 0.17 94 1011.3
20260503015039 52 339 0.0 0.0 0.00 0.17 0.17 94 1011.4
20260503014534 52 339 0.0 0.0 0.00 0.17 0.17 94 1011.5
20260503014032 52 335 0.0 0.0 0.00 0.17 0.17 94 1011.5
20260503013529 52 333 0.0 0.0 0.00 0.17 0.17 94 1011.6
20260503013027 52 324 0.0 0.0 0.00 0.17 0.17 94 1011.4
20260503012524 52 325 0.0 0.0 0.00 0.17 0.17 94 1011.5
20260503012020 52 325 0.0 0.0 0.00 0.17 0.17 93 1011.2
20260503011517 52 331 0.0 0.0 0.00 0.17 0.17 93 1011.2
20260503011015 52 331 0.0 0.0 0.07 0.17 0.17 93 1010.8
20260503010511 52 327 0.0 0.0 0.00 0.16 0.16 93 1011.2
20260503010009 52 327 0.0 0.0 0.00 0.16 0.16 93 1010.9
20260503005505 52 327 0.0 0.0 0.00 0.16 0.16 93 1011.0
20260503005002 52 327 0.0 0.0 0.00 0.16 0.16 93 1011.0
20260503004458 52 337 0.0 0.0 0.00 0.16 0.16 92 1011.0
20260503003956 52 342 0.0 0.0 0.00 0.16 0.16 92 1010.7
20260503003453 52 342 0.0 0.0 0.00 0.16 0.16 92 1010.5
20260503002950 52 342 0.0 0.0 0.00 0.16 0.16 92 1010.6
20260503002447 52 342 0.0 0.0 0.00 0.16 0.16 91 1010.5
20260503001943 52 315 0.0 0.0 0.00 0.16 0.16 91 1010.5
20260503001440 52 299 0.0 0.0 0.00 0.16 0.16 91 1010.9
20260503000938 52 316 0.0 0.0 0.00 0.16 0.16 91 1010.4
20260503000437 52 255 0.0 0.0 0.00 0.16 0.16 91 1010.5
20260502235932 52 308 0.0 0.0 0.00 0.16 0.16 91 1010.6
20260502235429 53 308 0.0 0.0 0.00 0.16 0.16 91 1010.4
20260502234926 53 322 0.0 0.0 0.00 0.16 0.16 90 1010.4
20260502234422 53 328 0.0 0.0 0.00 0.16 0.16 90 1010.1
20260502233919 52 328 0.0 0.0 0.00 0.16 0.16 90 1010.2
20260502233415 53 327 0.0 0.0 0.00 0.16 0.16 90 1010.1
20260502232912 53 300 0.0 0.0 0.00 0.16 0.16 89 1010.2
20260502232409 53 298 0.0 0.0 0.00 0.16 0.16 89 1010.1
20260502231905 53 298 0.0 0.0 0.00 0.16 0.16 89 1010.0
20260502231403 53 24 0.0 0.0 0.00 0.16 0.16 88 1009.8
20260502230901 53 23 0.0 0.0 0.00 0.16 0.16 88 1009.8
20260502230359 53 23 0.0 0.0 0.00 0.16 0.16 88 1009.8
20260502225855 53 23 0.0 0.0 0.00 0.16 0.16 88 1009.7
20260502225352 53 27 0.0 0.0 0.00 0.16 0.16 89 1009.9
20260502224849 53 27 0.0 0.0 0.00 0.16 0.16 89 1009.8
20260502224345 53 28 0.0 0.0 0.00 0.16 0.16 89 1009.7
20260502223843 53 20 0.9 0.9 0.00 0.16 0.16 90 1009.7
20260502223341 54 11 0.0 0.0 0.00 0.16 0.16 90 1009.9
20260502222838 54 0 0.0 0.0 0.00 0.16 0.16 90 1009.8
20260502222336 54 6 0.0 0.0 0.00 0.16 0.16 90 1009.8
20260502221831 54 6 0.0 0.0 0.00 0.16 0.16 90 1009.9
20260502221328 54 11 0.0 0.9 0.00 0.16 0.16 90 1010.1
20260502220825 54 11 0.9 0.9 0.00 0.16 0.16 90 1009.6
20260502220321 54 20 0.9 0.9 0.00 0.16 0.16 90 1009.8
20260502215817 53 3 0.0 0.0 0.00 0.16 0.16 90 1009.7
20260502215315 54 2 0.9 1.7 0.00 0.16 0.16 90 1009.9
20260502214812 54 21 0.0 0.9 0.00 0.16 0.16 90 1009.9
20260502214308 54 13 0.0 0.0 0.00 0.16 0.16 90 1009.8
20260502213806 53 5 0.0 0.9 0.00 0.16 0.16 90 1009.9
20260502213302 54 14 0.9 0.9 0.00 0.16 0.16 89 1009.8
20260502212802 54 10 0.0 0.0 0.00 0.16 0.16 89 1009.9
20260502212259 53 12 0.0 0.0 0.00 0.16 0.16 89 1009.9
20260502211755 53 13 0.0 0.0 0.00 0.16 0.16 89 1010.0
20260502211252 54 350 1.7 1.7 0.00 0.16 0.16 89 1010.0
20260502210749 53 30 0.9 0.9 0.00 0.16 0.16 89 1009.7